IRIDIUM 33 DEB

Satellite information

Favourite Embed

Satellite Type and Status

DEBRISIN ORBIT

Key statistics

Satellite IRIDIUM 33 DEB at a glance.

Uptime

10221

Days in orbit

Revolutions

≈ 14.8

Per day

Orbit

LEO

Low Earth Orbit

Inclination

86.4

Latest

Satellite identification and parameters

Extended collection of information and parameters for IRIDIUM 33 DEB.

Object identification

Identified? True

Debris? True

Object name: IRIDIUM 33 DEB

International designator: 1997-051CN

Object number (NORAD): 34079

Object ID (CCSDS): 34079

Country: UNITED STATES OF AMERICA (US)

Current information (Y/N): Y

RCS size: SMALL

Orbital parameters

Period: 97.298 minutes

Inclination: 86.3759 deg

SMA: 7007.471 km

Apoapsis: 633.086 km

Periapsis: 625.587 km

RAAN: 52.1844 deg

Eccentricy: 0.00053509

Argument of periapsis: 326.1683 deg

Mean anomaly: 47.7987 deg

Mean motion: 14.79996832 rev/day

Mean motion (dot): 0.00012973 rev/day2

B* drag term: 0.0017106316 1/REarth

Two-line elements (TLE)

Creation date: Sept. 8, 2025, 3:16 a.m.

Reference frame: TEME

Reference center: EARTH

Epoch: Sept. 7, 2025, 5:34 p.m. UTC

TLE line 0: 0 IRIDIUM 33 DEB

TLE line 1: 1 34079U 97051CN 25250.73212905 .00012973 00000-0 17106-2 0 9997

TLE line 2: 2 34079 86.3759 52.1844 0005351 326.1683 47.7987 14.79996832875561

Live tracking on map

Real-time ground track for satellite IRIDIUM 33 DEB.

In-orbit conjunctions

A list of the most updated potential collisions computed for object IRIDIUM 33 DEB.

Target Orbit TCA Probability of collision Miss distance Type
CZ-6A DEB SSO 2025-07-05 17:15:39 0.0005592026 54.0 (m) DEBRIS
CZ-6A DEB LEO 2025-01-30 15:33:31 0.0001791621 429.0 (m) DEBRIS
CZ-6A DEB LEO 2025-01-16 05:12:19 0.0001230715 91.0 (m) DEBRIS
SUNSAT SSO 2024-12-22 05:17:56 0.0002830603 257.0 (m) PAYLOAD
CZ-6A DEB SSO 2024-11-14 18:30:09 0.0001057731 454.0 (m) DEBRIS

Associated space launch

Iridium provides global mobile telecommunications services using a constellation of 66 low earth orbit satellites in a 86.4° inclined orbit. Although 77 satellites were originally envisioned for the system and spawned the name based on the 77th element in the periodic table, the system has been scaled back. Motorola's Satellite Communications Group designed and manufactured the Iridium satellites with Lockheed Martin providing the LM-700A spacecraft buses.

IRIDIUM 33 DEB was lifted into orbit during the mission ‘Proton-K/17S40 | Iridium 27 to 33’, on board a Proton-K/17S40 space rocket.

The launch took place on Sept. 14, 1997, 1:36 a.m. from 81/23 (81L).

For more information about the launch, click the button.

Launch to space Proton-K/17S40 | Iridium 27 to 33
Proton-K/17S40 | Iridium 27 to 33

Agency: N/A

Status: Launch Successful

Launch date: Sept. 14, 1997, 1:36 a.m. UTC

Rocket: Proton-K/17S40

Launch pad: 81/23 (81L)

Location: Baikonur Cosmodrome, Republic of Kazakhstan

...

Latest news about this satellite

There are no fresh news available about this satellite. Check back as we update our databases every day.


Newsletter sign-up

Weekly statistics, charts and insights to help you stay on top of the space industry.